Theta_e
325 324 324 322 321 321 322 321 321 321 320 319 317 316 315 308 300 301 301 300 300 298 296 295 295 295 296 296 294 293 294 293 290 290 293 293 293 293 291 292 292 290 283 284 285 282 291 292 294 294 295 295 295 294
325 325 324 323 321 321 322 322 321 321 321 320 317 315 308 308 300 299 299 298 298 296 295 294 293 293 293 293 292 292 295 293 293 292 290 291 292 290 291 291 290 290 289 286 288 290 291 292 293 293 294 294 294 294
325 325 325 324 323 322 322 322 322 322 322 320 316 308 302 303 298 301 297 296 295 295 294 293 294 293 294 294 295 292 290 292 293 292 289 289 290 288 288 290 290 290 291 289 290 292 292 294 293 293 294 294 294 294
324 325 325 326 324 322 322 322 321 321 321 317 309 302 300 299 296 299 296 296 296 296 294 292 292 292 293 293 295 295 294 295 296 290 286 286 288 288 289 290 290 289 291 291 290 292 293 293 293 293 294 294 294 295
324 324 325 326 324 323 321 321 320 319 318 313 305 300 297 295 295 296 296 296 296 298 294 292 291 292 293 293 294 293 293 293 287 288 286 288 289 288 289 288 290 290 291 291 291 292 291 292 293 294 293 294 294 294
323 323 325 325 324 322 321 321 321 319 314 308 300 295 295 295 295 296 293 295 293 293 293 294 290 292 292 292 293 293 293 293 287 289 289 289 290 289 287 289 291 292 292 292 291 291 292 292 293 294 294 294 294 294
324 323 324 323 323 322 321 321 318 310 302 299 295 294 294 295 295 295 296 293 293 292 292 289 288 290 292 292 293 292 293 291 289 286 289 289 290 288 285 289 292 292 292 291 292 291 292 293 293 294 294 293 293 294
324 323 322 322 321 321 321 316 307 301 298 295 294 293 293 294 292 290 292 293 292 294 294 292 288 289 290 289 288 292 287 286 287 286 287 289 288 286 286 291 292 292 291 291 291 292 292 292 294 294 293 292 293 293
323 324 323 322 321 320 315 306 301 298 296 294 293 293 293 294 290 289 290 290 291 293 293 290 291 292 290 290 289 290 289 285 286 285 287 288 286 286 289 290 292 291 291 290 290 292 292 292 293 294 292 292 292 293
323 323 324 322 320 314 304 300 298 295 294 293 294 292 292 290 289 290 290 291 291 292 288 290 290 291 291 292 289 288 286 286 285 289 288 285 289 290 291 292 290 291 291 292 291 292 292 292 293 293 291 292 293 294
322 322 322 320 311 303 300 297 295 293 294 294 291 290 290 290 290 291 289 291 291 287 287 289 290 291 290 293 291 289 286 281 284 290 287 289 289 290 291 291 292 292 292 292 292 293 293 294 294 292 292 294 294 294
322 321 318 310 302 299 297 295 294 295 294 292 290 289 290 291 291 290 289 288 289 291 289 291 290 290 289 291 289 287 286 284 287 289 285 291 289 290 291 292 292 292 292 292 293 293 293 294 294 293 294 294 294 294
321 318 306 302 299 297 295 294 295 292 291 293 291 290 290 289 292 290 288 289 291 291 290 290 290 289 290 289 289 289 285 288 289 286 289 288 290 290 290 291 291 292 292 291 292 293 293 294 294 294 294 294 294 294
317 306 301 299 297 295 294 293 291 293 292 292 292 291 292 290 292 292 290 291 291 290 290 290 291 291 291 290 288 289 288 288 287 288 290 289 288 289 290 291 290 291 291 291 292 292 292 292 292 292 292 293 294 294
304 301 299 297 294 293 291 293 292 292 291 292 291 290 291 289 289 289 290 290 290 290 290 291 291 290 289 288 288 288 287 286 285 290 289 287 288 288 289 290 290 290 291 291 291 291 291 291 291 291 292 292 293 293
296 293 293 292 292 292 292 291 289 289 290 290 288 288 288 290 290 290 290 290 290 290 290 290 289 287 286 287 286 289 288 288 286 288 287 287 288 287 289 290 290 291 291 291 291 290 291 291 291 291 292 292 293 292
292 292 291 290 291 290 290 290 289 289 289 287 288 288 290 291 290 290 290 290 291 290 289 288 288 288 287 286 288 290 289 288 288 288 288 288 288 289 290 290 290 290 290 291 291 291 290 291 291 291 291 293 293 293
291 290 290 290 291 291 289 289 289 288 288 289 290 290 289 289 289 288 289 290 290 291 290 289 288 287 287 287 290 289 287 287 286 286 286 289 289 290 290 290 290 290 290 290 291 291 290 291 291 291 292 293 293 293
290 290 290 290 290 289 287 288 288 288 288 288 287 287 287 287 288 289 290 291 291 290 288 287 287 288 289 287 287 286 287 286 286 286 288 290 290 290 290 290 290 290 290 291 291 290 290 291 292 292 292 293 293 292
291 291 292 291 290 289 287 288 289 288 289 288 287 287 287 287 288 288 289 289 289 287 285 284 288 289 287 286 286 286 286 287 285 285 285 288 289 289 289 289 289 290 290 290 291 290 290 291 292 292 292 293 293 292
291 291 290 289 287 288 287 286 286 288 288 288 287 287 287 287 287 287 287 288 287 285 289 288 286 287 289 289 289 289 288 288 286 286 285 285 289 289 290 290 290 290 290 290 291 290 290 290 292 292 292 293 293 292
288 290 288 288 287 286 286 287 288 288 288 288 288 288 288 288 288 288 285 287 288 288 286 286 287 288 288 288 289 289 289 289 289 289 289 289 289 288 289 289 289 290 290 290 291 290 290 290 291 292 293 293 293 292
288 288 287 287 286 285 286 287 287 288 287 287 288 288 287 287 287 287 288 287 287 288 289 288 289 289 289 289 289 289 289 289 288 288 289 289 289 289 289 290 290 290 290 291 291 290 289 290 291 292 293 293 292 291
289 286 284 284 284 286 282 284 287 287 288 287 286 287 287 286 286 287 289 288 286 288 288 288 289 288 288 288 288 288 289 289 289 289 289 289 289 289 290 290 290 291 291 291 290 290 290 290 292 293 293 292 291 290
286 283 283 284 283 284 285 284 286 286 286 287 285 284 285 286 286 288 289 287 285 285 286 288 288 288 285 286 287 288 290 290 289 289 289 289 289 290 290 291 291 291 291 291 290 289 291 291 292 292 292 291 290 290
284 280 283 283 285 286 287 285 286 287 287 285 287 287 286 286 285 286 288 286 285 285 286 287 286 285 286 287 287 288 289 289 289 289 289 290 291 290 290 290 290 290 291 290 289 290 291 292 292 292 291 290 290 289
282 281 285 284 286 286 286 286 286 286 287 285 285 284 283 282 285 287 285 287 287 289 289 289 289 288 288 289 289 289 289 289 289 289 289 290 290 290 290 290 290 291 290 290 289 291 292 292 292 291 291 290 289 289
284 286 286 285 286 285 285 283 285 286 287 285 286 285 284 285 286 285 286 289 289 289 290 289 289 289 289 289 289 289 288 288 288 288 288 289 289 289 289 290 290 290 290 290 289 291 291 291 291 291 290 290 289 288
286 285 283 281 284 285 285 286 286 285 284 285 285 286 286 285 286 288 289 289 289 289 289 289 289 289 289 289 289 289 288 288 288 287 287 286 288 290 290 289 289 289 289 289 290 291 291 290 290 290 290 289 288 288
285 284 283 281 278 283 285 284 285 283 285 285 285 285 285 286 288 289 289 288 288 288 288 288 288 287 288 288 288 288 288 288 288 288 286 286 288 289 290 290 289 289 289 289 290 290 290 290 289 289 288 288 288 287
283 284 283 283 281 284 284 284 286 286 285 282 284 284 285 285 287 288 288 289 289 288 287 287 287 287 287 287 287 287 287 288 288 288 288 288 288 289 290 290 290 289 289 290 290 290 290 289 288 288 288 288 288 287
283 283 283 279 280 280 283 283 283 284 283 283 283 282 284 285 285 286 288 288 288 287 288 288 287 288 288 288 288 288 288 288 288 288 288 288 288 288 288 289 289 289 289 290 290 290 289 289 289 289 289 289 288 287
282 283 282 281 278 281 282 282 282 281 281 282 283 285 285 285 285 286 288 288 288 288 288 288 287 287 287 287 287 287 287 287 287 287 288 288 288 288 288 288 288 288 289 289 290 289 289 289 289 289 288 288 288 287
Wind_Speed
43 40 37 35 32 31 28 25 22 18 14 10 7 5 6 7 8 6 12 7 6 3 7 13 8 5 4 3 4 4 4 4 3 4 3 1 1 2 1 3 2 3 3 2 1 3 4 9 7 8 6 14 17 18
45 42 39 36 33 32 31 29 25 21 17 13 10 8 9 8 10 9 10 18 17 13 5 17 20 19 13 8 5 2 3 2 3 3 1 3 1 2 2 1 2 1 5 3 6 5 6 2 9 5 11 14 15 17
47 44 41 37 35 34 33 31 28 24 19 18 15 15 15 12 12 9 22 24 18 7 6 5 3 12 10 12 4 4 2 2 3 3 3 2 3 3 1 1 1 2 2 2 3 3 7 14 6 10 14 14 18 20
49 46 43 40 37 36 35 32 29 26 24 22 21 21 18 16 14 14 22 14 11 11 4 2 3 6 10 11 10 10 11 12 7 5 2 3 2 1 1 3 1 4 2 3 4 5 10 2 9 14 17 23 20 22
50 47 45 43 39 38 36 34 31 29 28 25 25 24 23 21 20 23 21 10 9 5 4 3 7 9 10 15 19 17 17 8 3 3 3 1 1 2 1 2 2 0 0 2 4 6 5 9 15 22 16 18 20 18
51 49 46 44 41 40 38 36 35 33 32 29 30 28 24 23 25 19 5 4 13 8 4 3 2 7 14 15 19 18 11 7 3 3 1 1 1 3 2 1 1 1 1 2 4 6 6 10 17 20 17 22 26 21
54 50 46 44 42 41 41 40 41 40 38 35 31 29 31 31 25 8 4 12 13 11 4 3 2 2 8 4 4 6 10 3 3 2 2 1 1 3 2 2 3 4 5 5 6 7 8 6 13 22 25 27 25 20
55 51 47 44 43 42 45 49 50 46 43 40 37 32 31 22 19 12 19 17 10 12 7 3 0 2 5 2 2 2 2 3 4 2 2 2 2 2 1 5 6 6 6 5 7 11 11 17 19 20 24 24 15 14
55 52 48 45 44 48 56 59 56 53 50 45 41 34 25 8 5 6 14 12 11 6 3 3 5 4 6 2 2 3 2 2 2 2 0 3 1 2 6 7 4 4 3 7 8 11 12 9 11 19 16 16 10 13
55 52 51 47 51 62 67 64 63 59 55 49 37 8 3 4 26 17 3 5 7 5 3 2 2 3 3 2 2 3 1 2 1 3 3 2 3 6 6 5 3 4 6 9 6 11 10 11 13 14 10 16 16 17
59 53 53 55 68 71 70 69 67 62 50 18 6 3 15 16 4 5 2 2 2 3 0 3 3 6 2 3 2 1 2 0 3 3 3 2 3 3 3 3 4 7 6 8 6 10 14 14 14 12 14 20 20 20
59 55 63 74 76 75 73 72 70 35 23 17 26 27 10 1 3 3 2 1 3 5 1 3 3 3 1 3 3 1 3 2 2 3 3 2 3 3 3 2 2 4 8 9 11 10 13 18 20 16 16 20 21 23
62 65 76 81 78 76 75 67 39 45 64 29 8 5 4 2 3 7 7 3 4 5 3 4 4 3 2 3 3 3 4 3 2 2 3 4 4 3 2 1 3 3 10 10 12 9 13 18 18 17 20 18 21 23
72 79 78 79 79 76 68 52 64 42 13 3 4 7 4 5 5 5 4 5 3 7 11 7 3 3 2 3 3 4 3 3 2 2 4 3 5 4 2 1 2 3 9 9 8 11 14 16 18 18 19 18 21 22
77 75 73 70 73 71 68 57 38 20 8 4 4 5 4 2 2 1 3 7 10 11 6 6 4 3 2 3 1 3 3 2 5 4 4 4 5 3 1 1 1 3 8 11 11 11 13 15 18 17 18 19 21 22
76 68 60 68 66 59 50 35 17 8 7 3 4 4 3 8 7 9 11 11 8 5 3 3 4 4 1 4 3 4 6 5 3 3 4 5 5 3 2 2 4 5 7 11 11 12 13 12 15 15 17 19 18 23
62 46 51 57 59 43 23 10 7 5 5 4 3 5 3 8 9 8 10 8 9 3 2 3 4 2 3 3 2 3 4 3 3 3 4 8 6 6 5 4 4 6 10 12 9 11 11 11 12 14 17 20 15 18
61 56 57 43 41 34 25 10 7 4 6 4 5 7 4 6 8 4 3 4 3 2 2 3 4 3 4 6 3 3 3 2 3 4 5 8 7 3 3 7 5 7 10 13 8 10 11 10 11 12 13 15 15 18
54 48 38 35 22 8 5 6 7 4 4 2 3 3 4 4 10 12 9 13 10 7 4 2 4 3 3 3 3 3 2 3 3 3 4 5 4 5 8 9 10 9 8 8 10 8 8 9 5 9 11 13 14 17
35 27 26 17 3 6 5 3 5 5 3 2 3 3 4 4 3 6 7 6 2 2 3 2 3 2 3 2 2 3 5 8 4 2 1 4 4 5 6 7 11 8 6 9 8 6 6 6 6 8 9 9 11 15
34 30 22 18 9 13 6 3 4 3 4 4 2 3 3 3 3 2 2 3 3 2 1 2 2 3 4 4 3 3 4 5 4 5 3 2 8 6 7 7 6 6 6 8 8 6 5 4 6 7 7 8 9 9
20 23 10 10 7 6 5 10 5 4 3 3 3 3 3 3 2 1 2 2 2 2 3 3 3 5 6 7 7 6 8 8 7 9 10 9 6 9 10 11 9 12 11 9 8 7 6 5 4 5 4 7 7 8
11 10 7 6 6 5 2 4 4 4 4 3 2 3 2 2 1 3 1 2 3 7 9 7 5 4 5 5 5 4 5 8 10 11 11 11 12 12 9 10 8 9 8 8 7 7 6 4 3 3 2 4 6 8
11 8 5 4 5 4 2 3 3 3 3 3 3 4 2 2 2 1 2 2 3 3 7 9 8 4 1 3 5 10 11 11 13 13 12 11 11 11 9 11 11 12 12 9 7 6 5 3 2 1 1 4 5 7
6 6 5 6 3 4 4 3 3 3 3 2 4 2 2 2 2 2 2 2 2 4 8 10 8 8 4 4 5 3 2 5 7 7 7 7 11 12 9 9 10 11 9 11 10 8 5 4 4 3 3 4 4 5
6 4 3 3 2 4 3 4 4 4 4 4 3 3 2 2 2 3 3 3 3 5 11 14 11 6 7 8 3 3 4 5 5 7 9 9 8 11 9 8 9 9 11 11 9 9 7 7 6 5 4 4 3 4
4 1 2 1 3 4 4 3 3 4 4 5 4 3 3 3 4 3 2 6 6 12 21 21 20 15 11 9 9 9 8 7 7 6 5 5 7 8 9 9 9 9 6 9 12 10 11 10 8 7 6 4 3 3
3 3 5 3 4 2 5 3 4 4 4 3 4 4 8 9 6 3 8 6 12 9 13 14 16 17 16 14 13 14 13 9 7 7 7 9 9 9 10 12 11 8 7 8 11 12 11 10 9 8 7 5 4 2
3 2 4 5 4 3 2 4 4 3 4 5 5 5 5 3 2 5 7 9 12 12 13 16 19 19 18 16 15 16 15 14 11 5 4 3 4 6 8 11 12 12 11 10 12 12 11 10 9 8 7 6 5 3
2 2 4 3 4 2 2 3 4 3 4 4 4 3 2 1 3 9 10 14 16 19 22 21 20 18 22 22 22 20 19 18 17 15 9 8 8 6 7 9 12 12 12 12 14 13 11 11 10 10 9 7 6 5
3 3 4 3 3 2 2 4 9 7 4 3 4 3 2 1 4 12 18 19 20 20 18 18 18 18 18 18 19 19 20 20 22 21 19 16 12 9 7 9 10 12 14 15 17 16 15 14 13 11 10 7 7 5
2 2 4 4 1 3 4 2 1 2 2 2 1 2 2 2 2 4 6 12 17 18 20 17 17 18 16 16 17 18 18 16 14 15 18 20 19 17 14 12 12 14 16 17 17 17 16 15 13 12 10 8 7 5
2 3 3 4 2 0 2 3 3 2 3 2 1 3 3 3 6 5 5 12 15 14 12 12 12 12 11 12 13 13 14 16 16 16 14 15 17 17 18 16 15 15 18 20 19 19 18 17 15 13 11 10 8 7
Wind_Direction
201 202 202 201 201 199 197 198 196 196 197 196 183 162 131 114 123 120 83 74 97 99 38 50 42 32 7 72 135 227 50 350 34 52 101 218 131 228 63 323 111 136 115 267 40 26 332 358 353 359 297 317 315 313
203 204 205 203 203 201 199 198 199 201 200 202 202 202 162 158 151 138 98 98 94 83 114 92 73 60 52 38 134 51 164 114 172 85 354 102 70 55 101 289 20 11 175 199 168 226 275 7 311 271 313 313 312 309
204 205 207 206 205 205 203 201 199 203 205 208 205 181 169 167 161 169 127 125 98 99 59 52 20 41 59 38 73 119 325 129 76 144 162 153 93 122 131 236 331 321 151 198 35 309 305 320 324 321 320 315 310 311
206 206 207 207 207 207 206 205 202 203 207 204 187 174 169 164 159 160 141 140 105 107 101 50 31 39 43 59 85 117 115 97 95 72 89 116 124 124 201 205 168 217 28 318 279 305 309 252 327 319 321 318 315 319
206 207 207 207 208 207 205 203 202 205 205 197 180 171 166 163 157 150 130 117 129 104 127 115 90 49 77 93 85 91 97 91 77 48 67 217 151 69 348 66 285 78 48 66 258 278 253 297 322 318 322 321 318 323
206 207 207 208 207 204 201 200 202 205 199 184 171 165 159 159 150 129 68 99 129 118 100 118 124 83 95 96 79 64 64 60 89 120 176 56 37 97 94 218 286 8 52 162 271 292 269 301 307 318 324 319 321 329
205 206 206 207 205 202 198 196 196 182 166 164 156 156 158 158 157 85 130 144 123 101 86 81 75 141 127 64 51 49 46 55 84 101 61 124 21 75 109 202 234 319 315 304 319 324 318 320 319 323 322 321 327 343
206 206 207 205 201 197 192 186 167 153 148 148 150 149 145 142 100 82 112 130 111 86 79 106 300 106 190 106 60 53 50 28 1 141 20 83 357 58 297 260 294 313 317 318 315 319 303 316 325 324 327 330 337 343
207 206 205 203 198 191 180 161 151 146 146 142 135 130 116 98 68 108 109 107 82 79 113 115 140 182 157 101 114 37 83 52 279 88 311 89 293 232 225 233 271 281 344 315 329 329 330 323 318 321 327 338 346 340
204 204 202 197 189 176 158 149 146 143 140 134 128 88 93 84 127 118 56 25 29 16 46 108 128 127 120 88 55 84 13 143 97 254 98 109 255 245 242 223 215 18 359 335 333 337 332 326 323 317 322 336 343 337
198 196 194 187 167 154 148 146 143 139 137 139 99 79 117 144 86 47 75 93 31 10 347 145 113 124 343 120 129 151 177 222 84 251 118 250 267 246 133 102 45 357 335 335 328 325 311 320 311 315 337 345 349 347
193 187 178 164 152 149 148 146 145 143 149 142 114 111 102 25 70 99 212 86 174 198 201 103 116 120 87 103 97 297 120 49 176 145 81 251 244 166 92 58 357 356 359 353 352 341 330 328 332 342 347 349 352 353
180 176 156 151 149 149 147 147 151 133 123 111 74 94 135 170 143 188 193 213 147 166 158 144 114 116 88 66 80 101 86 191 94 88 222 222 172 127 146 204 317 31 8 358 359 1 340 345 359 1 349 351 355 355
170 154 152 148 146 146 146 145 137 135 100 89 97 120 200 177 202 198 170 140 133 135 128 124 103 113 124 84 149 109 216 81 95 210 227 189 169 165 190 208 88 351 357 351 341 344 352 350 356 358 2 1 354 355
145 144 143 141 141 141 139 137 142 123 95 103 120 115 190 153 79 158 121 113 122 132 124 113 76 89 78 100 99 106 61 193 191 220 188 188 163 138 146 46 63 354 356 345 346 344 357 357 358 358 1 1 2 5
123 123 126 128 128 129 130 119 93 64 67 89 89 102 162 111 110 113 120 121 125 124 93 66 102 82 79 124 101 191 149 196 234 196 169 153 145 155 210 331 358 344 340 341 338 347 351 0 1 358 358 8 10 10
116 122 120 120 126 124 122 104 79 59 82 69 67 126 122 109 129 124 130 126 134 85 108 118 97 153 115 89 195 192 193 202 174 168 164 164 175 199 216 252 308 344 340 332 334 345 357 355 358 3 359 360 9 10
108 119 121 117 111 97 70 52 82 67 66 52 103 129 84 128 120 89 93 92 89 112 119 147 121 108 146 162 204 227 190 183 166 151 161 157 170 189 245 241 273 312 319 322 336 343 347 349 353 360 356 358 3 6
114 120 122 117 110 85 79 51 54 87 75 53 61 56 84 86 69 88 91 90 90 109 105 49 92 149 182 193 174 191 173 163 164 182 189 196 205 257 276 272 270 276 293 317 330 326 339 345 357 356 353 353 2 18
116 120 128 139 124 81 74 53 73 87 89 110 61 53 73 80 93 81 66 50 63 66 48 99 167 183 160 208 163 145 146 150 130 119 255 262 268 284 309 300 270 257 280 307 317 323 321 339 354 356 355 3 7 20
112 125 135 87 59 62 82 93 59 115 99 82 100 60 74 77 80 71 73 30 63 116 173 214 207 219 176 131 103 104 131 153 173 185 199 242 264 279 295 293 292 287 290 298 293 298 308 315 339 344 347 8 6 24
99 121 84 54 75 69 71 31 102 103 82 118 85 84 103 93 114 128 153 72 176 218 194 190 202 210 247 261 244 235 250 247 244 246 250 255 258 263 274 278 280 285 278 268 270 274 287 298 322 340 354 15 34 41
99 86 64 57 78 65 10 1 74 45 100 125 93 85 56 88 96 124 97 212 236 217 203 194 195 187 205 230 236 235 229 226 230 241 251 255 260 258 259 269 265 267 260 257 271 262 274 280 297 330 22 45 39 38
51 55 57 59 64 98 88 55 71 85 89 76 85 95 88 132 164 87 208 235 233 189 174 179 178 159 198 246 247 246 244 239 245 247 243 248 265 269 260 261 258 257 260 263 244 244 263 255 252 223 79 86 59 45
66 359 77 54 54 89 84 68 84 82 92 98 95 106 166 142 111 166 224 252 197 182 187 179 186 193 178 213 228 230 220 223 236 250 266 260 264 264 260 269 247 243 239 226 231 231 229 220 214 174 128 92 76 58
67 326 79 126 127 101 144 113 131 119 111 86 89 124 140 119 108 222 228 211 200 184 189 190 190 188 215 215 218 256 263 256 261 250 259 248 260 236 240 242 250 249 232 236 234 214 208 211 201 186 150 115 89 80
95 19 37 5 104 101 89 72 89 95 109 134 162 140 101 120 217 237 246 212 188 198 200 200 196 194 199 206 219 224 223 224 228 236 225 236 238 240 238 241 249 255 254 229 213 212 210 205 199 193 173 149 111 77
136 160 127 157 86 72 109 99 125 144 138 138 113 159 174 185 191 214 197 189 196 191 197 204 214 218 215 216 214 207 203 205 213 232 254 266 261 244 238 237 242 245 231 222 209 207 207 206 200 195 188 175 146 104
67 82 80 52 68 70 128 142 170 167 147 156 150 176 191 206 192 165 176 178 185 195 198 207 213 216 219 219 217 215 215 203 191 185 225 253 286 265 244 232 228 230 231 219 201 201 202 200 197 195 186 171 150 128
151 132 95 84 98 141 214 171 149 156 110 138 119 89 56 344 204 193 184 188 195 207 217 220 225 218 219 218 220 219 221 224 226 222 210 227 254 279 249 229 221 220 214 204 195 187 187 183 178 176 173 165 156 142
108 80 73 71 84 2 352 78 78 66 66 65 47 96 125 261 248 226 222 226 231 231 230 233 234 234 234 234 232 235 241 239 239 241 242 244 245 247 231 224 227 219 212 204 198 195 191 189 188 185 183 179 176 174
83 129 122 102 24 305 23 63 88 74 39 63 25 69 46 49 297 279 218 212 220 226 233 234 238 243 240 245 249 252 256 257 254 250 247 242 238 235 232 232 230 220 212 205 201 199 198 195 193 195 196 198 196 201
69 68 71 99 69 83 294 89 48 66 30 66 327 174 190 189 231 257 240 226 233 242 247 241 244 248 247 247 245 243 242 245 251 243 236 239 237 233 227 225 222 217 211 206 203 201 200 198 199 201 203 202 203 211